Location: Boisset
(44.7824°N, 2.2542°E)
Time: 20:48:24
(UTC+00:00)

Daily predictions for brighter satellites

Satellite Brightness Start Highest point End
(mag) Time Altitude Azimuth Time Altitude Azimuth Time Altitude Azimuth
Meteor 1-21 4.3 17:01:59 10° S 17:07:29 63° E 17:13:04 10° NNE
SL-14 R/B 4.3 17:06:12 10° SSW 17:09:49 46° WNW 17:13:29 10° N
CORIOLIS 4.2 17:04:34 10° SSE 17:09:59 80° ENE 17:15:27 10° NNW
Cosmos 1763 Rocket 3.5 17:05:24 10° S 17:10:34 70° ESE 17:15:43 10° NNE
Spot 4 Rocket 4.0 17:06:30 10° SSE 17:11:34 64° ENE 17:16:38 10° N
Cosmos 1758 4.1 17:07:53 10° NNW 17:11:39 54° W 17:15:26 10° S
YAOGAN 1 4.1 17:10:05 10° E 17:12:36 15° ENE 17:15:06 10° NNE
Cosmos 1733 Rocket 3.5 17:11:16 10° N 17:15:24 39° ENE 17:19:32 10° SE
Cosmos 540 Rocket 3.5 17:11:16 10° S 17:16:18 61° ESE 17:21:22 10° NNE
Cosmos 2322 4.2 17:13:22 10° SW 17:19:01 63° WNW 17:24:44 10° NNE
Cosmos 468 Rocket 4.2 17:15:13 10° S 17:20:13 52° ESE 17:25:14 10° NNE
USA 215 4.1 17:17:10 10° NE 17:23:13 42° NNW 17:29:16 10° W
Cosmos 2228 Rocket 3.4 17:19:50 10° SSE 17:24:09 46° E 17:28:31 10° NNE
Cosmos 2279 Rocket 4.0 17:21:28 10° N 17:27:39 70° E 17:33:48 10° SSE
Cosmos 841 Rocket 4.3 17:25:15 10° SSE 17:29:48 31° E 17:34:22 10° NE
Cosmos 1898 Rocket 3.9 17:25:09 10° N 17:30:09 41° ENE 17:35:09 10° SE
PSLV R/B 3.4 17:28:18 10° SSE 17:32:22 89° W 17:36:28 10° NNW
Aureole 1 Rocket 4.4 17:26:46 10° NNW 17:34:22 58° ENE 17:41:06 10° SE
Okean 1-7 3.6 17:34:02 10° SSE 17:37:53 33° E 17:41:44 10° NNE
SL-16 R/B 3.5 17:34:05 10° SE 17:38:03 20° E 17:40:55 14° ENE
Cosmos 1980 3.7 17:32:35 10° SSW 17:38:11 71° ESE 17:43:48 10° NNE
SMAP 4.0 17:36:55 10° S 17:41:27 52° W 17:46:01 10° NNW
Cosmos 1953 2.0 17:40:31 10° N 17:44:15 80° E 17:47:57 10° S
Lacrosse 5 4.5 17:43:03 10° WNW 17:47:04 24° WSW 17:51:04 10° S
NOSS 0 Rocket 4.1 17:41:59 10° SSW 17:48:06 75° WNW 17:54:18 10° NNE
SKYMED 2 3.6 17:46:20 10° NNE 17:50:39 59° E 17:54:55 10° S
Cosmos 1818 4.2 17:47:35 10° NNW 17:52:33 34° NE 17:56:19 16° E
ATLAS 2AS CENTAUR R/B 3.2 17:47:45 10° NNW 17:54:03 38° NE 17:59:05 15° E
ACS3 Solar Sail 2.0 17:49:02 10° SE 17:55:13 54° ENE 18:01:26 10° N
COSMOS 2428 3.9 17:50:13 10° SW 17:55:34 41° NW 18:00:56 10° NNE
Cosmos 2369 Rocket 3.4 17:51:32 10° N 17:55:39 20° NE 17:56:55 19° ENE
IGS 5A 4.1 17:52:14 10° S 17:56:11 57° W 18:00:09 10° NNW
Cosmos 372 Rocket 3.8 17:55:11 10° NNW 18:00:16 69° ENE 18:05:20 10° SSE
Cosmos 1174 4.3 17:57:06 10° NW 18:00:49 64° WSW 18:05:22 10° SSE
DNEPR-1 R/B 3.6 18:00:10 10° NW 18:04:57 85° SW 18:09:10 10° SSE
BREEZE-M DEB (TANK) 3.9 17:56:12 10° W 18:05:21 54° NNW 18:07:22 25° NE
Cosmos 1908 Rocket 3.8 18:04:20 10° N 18:08:30 44° ENE 18:12:36 10° SSE
Meteor 1-31 Rocket 2.4 18:08:04 10° SSE 18:11:36 68° ENE 18:15:10 10° N
Okean 3 4.5 18:08:12 10° SSW 18:12:08 45° WNW 18:16:07 10° N
Cosmos 1707 Rocket 4.4 18:08:35 10° SSW 18:12:54 52° WNW 18:17:16 10° N
EO 1 Delta rocket 3.7 18:09:50 10° N 18:14:33 82° E 18:19:15 10° S
Okean 2 4.1 18:12:05 10° SSW 18:15:55 50° WNW 18:19:47 10° N
Cosmos 2297 4.4 18:13:54 10° N 18:19:02 32° NE 18:20:18 29° ENE
Cosmos 1937 Rocket 3.3 18:15:08 10° NNW 18:20:18 77° ENE 18:25:28 10° SSE
CZ-2C R/B 4.0 18:22:18 22° N 18:22:18 22° N 18:23:44 10° N
Cosmos 2026 Rocket 4.2 18:15:25 10° SSE 18:21:30 49° E 18:27:35 10° NNE
Cosmos 858 Rocket 4.4 18:19:40 10° NNW 18:24:52 65° ENE 18:30:02 10° SSE
Cosmos 1825 4.3 18:23:10 10° SSE 18:23:11 10° SSE 18:23:11 10° SSE
BREEZE-M DEB (TANK) 3.8 18:10:35 10° WSW 18:26:36 82° NNW 18:28:56 33° ENE
Cosmos 1428 Rocket 4.4 18:22:07 10° S 18:28:18 75° E 18:34:28 10° NNE
Cosmos 1943 Rocket 3.2 18:23:39 10° NW 18:29:03 48° WSW 18:34:25 10° S
YAOGAN 3 4.4 18:25:22 10° SSE 18:29:35 73° ENE 18:33:51 10° N
RESURS DK-1 3.6 18:25:58 10° NW 18:29:46 41° WSW 18:33:32 10° S
Cosmos 2237 Rocket 3.0 18:26:55 10° SW 18:32:25 49° WNW 18:37:58 10° NNE
BlueWalker 3 2.6 18:30:52 10° NW 18:33:53 36° N 18:33:53 36° N
CZ-4B R/B 4.2 18:33:53 10° S 18:37:27 57° W 18:40:59 10° NNW
COSMO-SKYMED 1 3.7 18:34:34 10° N 18:38:41 43° WNW 18:42:47 10° SW
ISS -2.7 18:35:53 10° W 18:39:01 37° NNW 18:39:01 37° NNW
NOAA 6 4.3 18:34:15 10° S 18:39:19 68° WSW 18:44:26 10° NNW
Cosmos 2344 4.4 18:36:08 10° WSW 18:43:05 40° NW 18:48:48 15° NNE
Cosmos 2278 Rocket 4.2 18:38:29 10° NW 18:43:15 29° WSW 18:48:00 10° SSW
YAOGAN 1 3.1 18:43:51 10° S 18:48:02 57° W 18:52:16 10° NNW
CZ-4C R/B 2.5 18:46:24 10° WSW 18:50:42 49° NW 18:53:04 29° NNE
YAOGAN 11 4.0 18:51:30 44° N 18:52:48 80° WNW 18:57:05 10° SSW
ATLAS 5 CENTAUR R/B 1.9 18:52:15 10° SW 18:54:38 43° W 18:54:38 43° W
Meteor 1-24 Rocket 3.8 18:50:41 10° S 18:56:29 62° E 18:58:08 45° NE
SPOT 1/Viking Rocket 3.6 18:54:07 10° S 18:59:16 77° WSW 19:04:27 10° NNW
Cosmos 1703 Rocket 4.1 18:55:12 10° SSW 18:59:35 59° WNW 19:02:12 23° N
Resurs 1-3 3.9 18:59:32 10° S 19:03:49 65° W 19:08:08 10° NNW
USA 215 4.3 19:03:32 27° NNE 19:05:15 30° N 19:10:46 10° WNW
Meteor 2-5 Rocket 3.6 19:01:23 10° S 19:07:05 72° E 19:07:38 67° ENE
Cosmos 1656 Rocket 3.6 19:08:12 10° NNW 19:13:43 81° WSW 19:14:50 58° S
Cosmos 1814 Rocket 4.4 19:16:03 10° SSW 19:20:11 57° SSW 19:20:11 57° SSW
SL-16 R/B 2.5 19:15:57 10° SW 19:21:34 65° WNW 19:22:50 51° N
Cosmos 1553 Rocket 4.3 19:19:17 10° N 19:23:51 52° N 19:23:51 52° N
ADEOS 4.4 19:29:31 41° NNW 19:29:31 41° NNW 19:32:53 10° NNW
Cosmos 1818 4.4 19:31:03 10° NW 19:36:15 46° WSW 19:37:01 43° SW
ACS3 Solar Sail 3.8 19:33:43 10° SSW 19:39:03 28° W 19:44:25 10° NW
Cosmos 2369 Rocket 2.8 19:34:41 10° NNW 19:38:45 49° NW 19:38:45 49° NW
ATLAS 2AS CENTAUR R/B 3.1 19:38:38 10° NW 19:45:13 56° WSW 19:46:35 48° SSW
Cosmos 839 Rocket 4.3 19:46:27 10° SW 19:52:33 62° WNW 19:52:33 62° WNW
